Tracking 31030 objects as of 16-Jul-2025
HD Live streaming from Space Station
objects crossing your sky now

CZ-6A DEB

Track CZ-6A DEB now!
10-day predictions


NORAD ID: 54905
Int'l Code: 2022-151QS
Perigee: 688.2 km
Apogee: 806.5 km
Inclination: 98.8 °
Period: 99.6 minutes
Semi major axis: 7118 km
RCS: Unknown
Launch date: November 11, 2022
Source: People's Republic of China (PRC)
Launch site: Taiyaun Space Center, China (TSC)

Note: This is SATELLITE DEBRIS
Your satellite tracking list
Your tracking list is empty




NASA's NSSDC Master Catalog

Two Line Element Set (TLE):
1 54905U 22151QS  25196.87055850  .00001055  00000-0  30007-3 0  9999
2 54905  98.7508 246.8040 0083134 214.3750 145.2046 14.45559292137860
Source of the keplerian elements: AFSPC